This demonstration page uses our WeatherBlox Daily Observations layout. Learn more.

Left ArrowRight Arrow

40.92945, -100.16068

Hourly Observations for October 6, 2022

Temp ( °F °C ) Dew Point ( °F °C ) Humidity (%) Winds ( mph kmh ) Pressure ( in mb ) Visibility ( mi km ) Precip ( " mm )
12:15 am 00:15 Clear 50 10.2 47 8.5 89 89 WNW 7 11 30.22 1023 10 16 0.00 0.00
12:35 am 00:35 Clear 49 9.5 47 8.1 91 91 WNW 6 9 30.23 1024 10 16 0.00 0.00
12:55 am 00:55 Clear 48 9 46 7.7 92 92 W 6 9 30.23 1024 10 16 0.00 0.00
1:15 am 01:15 Clear 47 8.5 46 7.5 93 93 WNW 6 9 30.24 1024 10 16 0.00 0.00
1:35 am 01:35 Clear 46 8 45 7.1 94 94 NW 7 11 30.24 1024 10 16 0.00 0.00
1:55 am 01:55 Clear 47 8.5 46 7.5 93 93 NW 7 11 30.24 1024 10 16 0.00 0.00
2:15 am 02:15 Clear 48 8.9 46 7.6 92 92 WNW 6 9 30.23 1024 10 16 0.00 0.00
2:35 am 02:35 Clear 48 8.9 46 7.5 91 91 W 5 7 30.23 1024 10 16 0.00 0.00
2:55 am 02:55 Clear 47 8.4 45 7.2 92 92 WNW 8 13 30.25 1024 10 16 0.00 0.00
3:15 am 03:15 Clear 47 8.6 45 7.2 91 91 WNW 5 7 30.24 1024 10 16 0.00 0.00
3:35 am 03:35 Clear 47 8.1 45 7 93 93 WNW 7 11 30.25 1024 10 16 0.00 0.00
3:55 am 03:55 Clear 47 8.1 44 6.8 91 91 W 6 9 30.25 1024 10 16 0.00 0.00
4:15 am 04:15 Clear 47 8.3 45 7 92 92 WNW 9 15 30.25 1024 10 16 0.00 0.00
4:35 am 04:35 Clear 47 8.1 44 6.7 91 91 WNW 7 11 30.24 1024 10 16 0.00 0.00
4:55 am 04:55 Clear 45 7.2 43 6.2 93 93 W 3 6 30.26 1025 10 16 0.00 0.00
5:15 am 05:15 Clear 45 7 43 6 93 93 Calm 30.25 1024 10 16 0.00 0.00
5:35 am 05:35 Clear 44 6.8 43 5.9 94 94 WNW 6 9 30.26 1025 10 16 0.00 0.00
5:55 am 05:55 Clear 46 8 45 7 93 93 WNW 8 13 30.26 1025 10 16 0.00 0.00
6:15 am 06:15 Clear 45 7.3 44 6.5 95 95 WNW 6 9 30.27 1025 10 16 0.00 0.00
6:35 am 06:35 Clear 46 8 45 7 93 93 WNW 8 13 30.26 1025 10 16 0.00 0.00
6:55 am 06:55 Clear 47 8.1 45 7 93 93 WNW 8 13 30.26 1025 10 16 0.00 0.00
7:15 am 07:15 Clear 47 8.5 45 7 90 90 WNW 8 13 30.27 1025 10 16 0.00 0.00
7:35 am 07:35 Clear 47 8.3 44 6.8 90 90 WNW 8 13 30.27 1025 10 16 0.00 0.00
7:55 am 07:55 Sunny 47 8.1 44 6.8 91 91 WNW 9 15 30.28 1025 10 16 0.00 0.00
8:15 am 08:15 Sunny 47 8.6 45 7 90 90 NW 7 11 30.28 1026 10 16 0.00 0.00
8:35 am 08:35 Sunny 49 9.2 46 7.5 89 89 WNW 8 13 30.28 1025 10 16 0.00 0.00
8:55 am 08:55 Sunny 50 10 46 7.9 87 87 WNW 7 11 30.28 1025 10 16 0.00 0.00
9:15 am 09:15 Sunny 53 11.6 47 8.5 81 81 WNW 7 11 30.28 1025 10 16 0.00 0.00
9:35 am 09:35 Sunny 55 12.7 47 8.6 76 76 NW 7 11 30.27 1025 10 16 0.00 0.00
9:55 am 09:55 Sunny 57 14 49 9.5 74 74 N 8 13 30.27 1025 10 16 0.00 0.00
10:15 am 10:15 Partly Cloudy 59 15.1 50 9.8 71 71 N 13 20 30.26 1025 10 16 0.00 0.00
10:35 am 10:35 Sunny 61 15.9 50 10.1 68 68 NNE 9 15 30.26 1025 10 16 0.00 0.00
10:55 am 10:55 Sunny 62 16.5 50 10.2 66 66 NNE 13 20 30.26 1025 10 16 0.00 0.00
11:15 am 11:15 Partly Cloudy 62 16.4 50 10.2 67 67 N 14 22 30.26 1025 10 16 0.00 0.00
11:35 am 11:35 Sunny 63 17.2 51 10.3 64 64 NNE 12 19 30.27 1025 10 16 0.00 0.00
11:55 am 11:55 Sunny 61 16.2 50 10.2 68 68 N 10 17 30.28 1025 10 16 0.00 0.00
12:15 pm 12:15 Partly Cloudy 62 16.7 51 10.4 66 66 N 13 20 30.27 1025 10 16 0.00 0.00
12:35 pm 12:35 Partly Cloudy 63 17 51 10.4 65 65 NNE 10 17 30.28 1025 10 16 0.00 0.00
12:55 pm 12:55 Partly Cloudy 63 17.2 51 10.4 64 64 NNE 13 20 30.28 1025 10 16 0.00 0.00
1:15 pm 13:15 Sunny 64 17.7 51 10.4 62 62 N 14 22 30.27 1025 10 16 0.00 0.00
1:35 pm 13:35 Sunny 64 17.6 50 10.2 62 62 N 15 24 30.26 1025 10 16 0.00 0.00
1:55 pm 13:55 Sunny 64 17.7 50 10 61 61 N 12 19 30.26 1025 10 16 0.00 0.00
2:15 pm 14:15 Sunny 64 18 50 9.8 59 59 NNE 17 28 30.25 1024 10 16 0.00 0.00
2:35 pm 14:35 Sunny 65 18.3 49 9.4 56 56 NNE 14 22 30.25 1024 10 16 0.00 0.00
2:55 pm 14:55 Sunny 65 18.4 48 9.1 55 55 NNE 17 28 30.24 1024 10 16 0.00 0.00
3:15 pm 15:15 Sunny 65 18.6 48 9.1 54 54 NE 10 17 30.24 1024 10 16 0.00 0.00
3:35 pm 15:35 Sunny 66 18.7 47 8.6 52 52 NNE 14 22 30.24 1024 10 16 0.00 0.00
3:55 pm 15:55 Sunny 65 18.3 46 7.9 51 51 NE 14 22 30.25 1024 10 16 0.00 0.00
4:15 pm 16:15 Sunny 66 18.7 46 7.8 49 49 NE 14 22 30.24 1024 10 16 0.00 0.00
4:35 pm 16:35 Sunny 65 18.6 45 7.4 48 48 NE 14 22 30.24 1024 10 16 0.00 0.00
4:55 pm 16:55 Sunny 66 18.9 45 7.4 47 47 NE 13 20 30.24 1024 10 16 0.00 0.00
5:15 pm 17:15 Sunny 65 18.1 44 6.8 48 48 NE 14 22 30.26 1025 10 16 0.00 0.00
5:35 pm 17:35 Sunny 64 17.6 44 6.7 49 49 NE 13 20 30.26 1025 10 16 0.00 0.00
5:55 pm 17:55 Sunny 63 17.1 44 6.5 50 50 NE 7 11 30.28 1025 10 16 0.00 0.00
6:15 pm 18:15 Sunny 62 16.4 44 6.4 52 52 NE 13 20 30.28 1025 10 16 0.00 0.00
6:35 pm 18:35 Sunny 61 16.2 44 6.5 53 53 NE 8 13 30.28 1026 10 16 0.00 0.00
6:55 pm 18:55 Sunny 59 15.2 43 6.3 55 55 NE 12 19 30.31 1026 10 16 0.00 0.00
7:15 pm 19:15 Clear 58 14.3 43 6.2 58 58 NE 8 13 30.32 1027 10 16 0.00 0.00
7:35 pm 19:35 Clear 56 13.6 43 6.2 61 61 NE 10 17 30.34 1027 10 16 0.00 0.00
7:55 pm 19:55 Clear 56 13.1 42 5.3 59 59 NE 13 20 30.34 1027 10 16 0.00 0.00
8:15 pm 20:15 Clear 54 12.3 39 4.1 57 57 NE 12 19 30.37 1028 10 16 0.00 0.00
8:35 pm 20:35 Clear 53 11.7 37 2.7 54 54 NE 13 20 30.38 1029 10 16 0.00 0.00
8:55 pm 20:55 Clear 52 11.2 33 0.8 49 49 NE 13 20 30.40 1029 10 16 0.00 0.00
9:15 pm 21:15 Clear 51 10.5 32 -0.1 48 48 NE 13 20 30.41 1030 10 16 0.00 0.00
9:35 pm 21:35 Clear 50 9.8 31 -0.5 49 49 NE 14 22 30.41 1030 10 16 0.00 0.00
9:55 pm 21:55 Clear 49 9.3 29 -1.4 47 47 NE 14 22 30.42 1030 10 16 0.00 0.00
10:15 pm 22:15 Clear 48 8.8 29 -1.8 47 47 NE 12 19 30.43 1031 10 16 0.00 0.00
10:35 pm 22:35 Clear 47 8.1 29 -1.5 51 51 NE 9 15 30.45 1031 10 16 0.00 0.00
10:55 pm 22:55 Clear 46 8 29 -1.5 51 51 NE 12 19 30.46 1031 10 16 0.00 0.00
11:15 pm 23:15 Clear 46 7.8 29 -1.5 52 52 NE 12 19 30.46 1032 10 16 0.00 0.00
11:35 pm 23:35 Clear 45 7.1 29 -1.5 54 54 NE 8 13 30.47 1032 10 16 0.00 0.00
11:55 pm 23:55 Clear 44 6.7 29 -1.5 56 56 NE 9 15 30.47 1032 10 16 0.00 0.00

Powered by AerisWeather